TELSTAR 18V (APSTAR 5C)

Last updated on July 6, 2021, 3:31 p.m. UTC

1 43611U 18069A   21187.03325688 -.00000284  00000-0  00000+0 0  9997
2 43611   0.0191  32.3967 0001982  79.8463 321.9437  1.00271838 10498
UTC
Height (km)
Latitude
Longitude
Inclination
Orbital Period
UTC large
Height (km)
Speed (km/s)
/
Latitude / Longitude
Inclination (degrees)
Orbital Period (minutes)
Azimuth
Elevation
Range (km)
Doppler Factor
iOS Compass Heading
iOS Angle

Next 30 passes for location: Hong Kong

Rise time Rise Azimuth (degrees) Set time Set Azimuth (degrees) Duration Max altitude (degrees)

No matching passes for this satellites